📊 Raw Sensor Data

Showing records 41126 to 41150 of 84,977 total

ID Distance (ft) Battery V Battery A Int Temp (°F) Int Humid (%) Ext Temp (°F) Solar V RSSI SNR Time Stamp
43864 15.3 3.97 0 110 48 98 5.10 -71 7 06/18/2025 05:15 PM
43863 15.3 3.97 0 111 47 100 5.10 -70 8 06/18/2025 05:00 PM
43862 15.3 4.03 0 111 46 101 5.10 -70 8 06/18/2025 04:45 PM
43861 15.3 3.97 0 111 46 102 5.10 -69 8 06/18/2025 04:30 PM
43860 15.3 3.97 0 111 45 102 5.20 -72 7 06/18/2025 04:15 PM
43859 15.2 4.07 0 110 44 103 5.10 -70 7 06/18/2025 04:00 PM
43858 15.2 3.97 0 108 44 102 5.10 -70 8 06/18/2025 03:45 PM
43857 15.2 3.97 0 108 44 101 5.10 -70 8 06/18/2025 03:30 PM
43856 15.2 3.97 0 107 43 99 5.10 -72 7 06/18/2025 03:15 PM
43855 15.2 3.97 0 105 43 99 5.10 -70 8 06/18/2025 03:00 PM
43854 15.2 3.97 0 104 43 96 5.10 -70 8 06/18/2025 02:45 PM
43853 15.2 3.97 0 104 42 96 5.10 -71 8 06/18/2025 02:30 PM
43852 15.2 4.11 0 103 42 97 5.10 -71 8 06/18/2025 02:15 PM
43851 15.2 3.97 0 101 42 93 5.10 -69 8 06/18/2025 02:00 PM
43850 15.2 4.09 0 99 42 93 5.20 -69 7 06/18/2025 01:45 PM
43849 15.1 3.96 0 99 42 90 5.10 -70 8 06/18/2025 01:30 PM
43848 15.2 3.96 0 97 42 90 5.10 -70 7 06/18/2025 01:15 PM
43847 15.1 3.96 0 96 42 92 5.10 -69 8 06/18/2025 01:00 PM
43846 15.2 3.96 0 93 43 90 5.20 -69 8 06/18/2025 12:45 PM
43845 15.2 3.96 0 92 43 88 5.10 -70 8 06/18/2025 12:30 PM
43844 15.2 4.03 0 90 44 86 5.10 -69 8 06/18/2025 12:15 PM
43843 15.2 3.97 0 89 43 89 5.10 -69 8 06/18/2025 12:00 PM
43842 15.2 3.96 0 88 43 91 5.10 -70 8 06/18/2025 11:45 AM
43841 15.2 3.96 0 85 43 87 5.10 -67 7 06/18/2025 11:15 AM
43840 15.2 3.96 0 82 43 84 5.10 -67 7 06/18/2025 10:45 AM